Overview Statistics Trail Chart Weather Telemetry Raw packets
 

This is the latest recevied weather packets stored in our database for station/object WA6OOO. If no packets are shown the sender has not sent any weather packets the latest 10 day(s).

<< 28 29 30 31 32 33 34 >>
Time Temp. Humidity Pressure Rain* Wind** Luminosity Snow
1788488232 20° C 80% 1014.7 hPa 0 mm - 5 W/m² -
1788487926 20° C 79% 1014.9 hPa 0 mm - 7 W/m² -
1788487623 20° C 78% 1014.8 hPa 0 mm - 11 W/m² -
1788487322 20° C 78% 1014.9 hPa 0 mm - 14 W/m² -
1788487021 20.56° C 78% 1015.1 hPa 0 mm - 17 W/m² -
1788486721 20.56° C 77% 1015 hPa 0 mm - 20 W/m² -
1788486419 21.11° C 76% 1014.9 hPa 0 mm - 23 W/m² -
1788486115 21.11° C 74% 1015.1 hPa 0 mm - 28 W/m² -
1788485812 21.67° C 72% 1015 hPa 0 mm - 38 W/m² -
1788485507 21.67° C 70% 1015.1 hPa 0 mm - 45 W/m² -
1788485203 21.67° C 70% 1015.1 hPa 0 mm - 52 W/m² -
1788484902 22.22° C 69% 1015.2 hPa 0 mm - 59 W/m² -
1788484601 21.67° C 70% 1015.2 hPa 0 mm - 67 W/m² -
1788484297 21.67° C 69% 1015.1 hPa 0 mm - 75 W/m² -
1788483992 21.67° C 70% 1015.2 hPa 0 mm - 83 W/m² -
1788483689 22.22° C 71% 1015.3 hPa 0 mm - 92 W/m² -
1788483384 22.78° C 69% 1015.3 hPa 0 mm - 101 W/m² -
1788483079 22.22° C 70% 1015.2 hPa 0 mm - 112 W/m² -
1788482769 22.78° C 68% 1015.2 hPa 0 mm - 123 W/m² -
1788482468 22.78° C 69% 1015.2 hPa 0 mm - 135 W/m² -
1788482165 22.78° C 69% 1015.3 hPa 0 mm - 147 W/m² -
1788481861 22.78° C 69% 1015.2 hPa 0 mm - 161 W/m² -
1788481556 22.78° C 68% 1015.5 hPa 0 mm - 176 W/m² -
1788481255 22.78° C 67% 1015.4 hPa 0 mm - 187 W/m² -
1788480951 23.33° C 66% 1015.5 hPa 0 mm - 200 W/m² -

* Rain latest hour (hover to see other rain measurements)
** Current wind speed in m/s (hover to see current wind gust speed)